Regional Weather Roundup
Issued by NWS

Home | Current Version | Previous Version | Text Only | Print | Product List | Glossary On
Versions: 1 2 3 4 5 6 7 8 9 10 11 12 13 14 15 16 17 18 19 20 21 22 23 24 25 26 27 28 29 30 31 32 33 34 35 36 37 38 39 40 41 42 43 44 45 46 47 48 49 50
000
ASUS43 KMPX 292310
RWRMN
WEATHER ROUNDUP FOR MINNESOTA
NATIONAL WEATHER SERVICE TWIN CITIES/CHANHASSEN MN
500 PM CST THU JAN 29 2015


NOTE: "FAIR" INDICATES FEW OR NO CLOUDS BELOW 12,000 FEET WITH NO
SIGNIFICANT WEATHER AND/OR OBSTRUCTIONS TO VISIBILITY. N/A MEANS
CURRENT SKY AND/OR WEATHER CONDITIONS ARE NOT AVAILABLE.

MNZ060>063-068>070-300000-
   Twin Cities Metro

CITY           SKY/WX    TMP DP  RH WIND       PRES   REMARKS
TWIN CITIES    MOCLDY    26  13  57 NW18G28   30.35R WCI  13
ST PAUL        MOCLDY    26  14  60 NW16G26   30.36R WCI  14
CRYSTAL        PTCLDY    26  12  55 NW17G25   30.36R WCI  13
BLAINE         MOCLDY    27  16  63 NW17G25   30.35R WCI  14
LAKEVILLE      MOCLDY    25  16  68 NW18G25   30.34R WCI  11
EDEN PRAIRIE   MOCLDY    26  14  60 NW20G25   30.36R WCI  12
SOUTH ST PAUL  MOCLDY    28  15  58 NW18G26   30.35R WCI  15
LAKE ELMO      MOCLDY    28  18  64 NW13G23   30.34R WCI  18
$$
MNZ001>005-007-008-013>017-022>024-027-028-300000-
   Northwest Minnesota

CITY           SKY/WX    TMP DP  RH WIND       PRES   REMARKS
BEMIDJI        PTCLDY     9   3  77 NW13      30.43R WCI  -6
HALLOCK        CLEAR      7   0  72 N13       30.56R WCI  -9
ROSEAU         PTCLDY     7   0  72 W10       30.50R WCI  -8
WARROAD        CLEAR      7  -2  66 NW10G16   30.49R WCI  -8
THIEF RVR FALL PTCLDY     7   1  78 NW12      30.51R WCI  -9
CROOKSTON      PTCLDY     9   3  78 N14       30.56S WCI  -8
FOSSTON        MOCLDY     7   1  78 NW13G20   30.49R WCI  -9
DETROIT LAKES  MOCLDY    12   9  85 NW18      30.48R WCI  -5
MOORHEAD       PTCLDY    16   9  73 N13       30.54R WCI   2
PARK RAPIDS    CLEAR     14   5  67 NW12      30.41R WCI   0
MAHNOMEN       MOCLDY    10   4  78 NW14      30.49R WCI  -7
$$
MNZ006-009>011-018-025>026-300000-
   North Central Minnesota

CITY           SKY/WX    TMP DP  RH WIND       PRES   REMARKS
BAUDETTE       CLEAR      6  -2  69 NW13      30.44R WCI -10
FLAG ISLAND    CLEAR      5  -2  72 NW13      30.47R WCI -12
INTL FALLS     CLOUDY     9   0  67 N14       30.41R WCI  -7
WASKISH        MOCLDY    10   1  67 NW6       30.45R WCI   1
BIG FORK       CLEAR     10   1  67 NW6       30.40R WCI   1
LONGVILLE      CLEAR     14   3  62 NW6       30.40R WCI   5
GRAND RAPIDS   CLEAR     12   3  67 NW12      30.36R WCI  -2
CRANE LAKE     CLOUDY    10   3  72 NW8       30.38R WCI  -1
ORR            CLOUDY     9   1  72 NW7       30.34R WCI  -3
COOK           CLOUDY    10   3  72 NW9G16    30.35R WCI  -2
WALKER         FAIR      11   3  71 NW7G17    30.42R WCI   0
$$
MNZ012-019>021-037-300000-
   Northeast Minnesota

CITY           SKY/WX    TMP DP  RH WIND       PRES   REMARKS
DULUTH         MOCLDY    15   5  64 NW13G21   30.30R WCI   1
ELY            LGT SNOW  12   7  79 NW9G21    30.29R WCI   0
HIBBING        PTCLDY    11   1  64 NW16      30.35R WCI  -6
EVELETH        MOCLDY    12   5  73 NW14      30.34R WCI  -3
DULUTH HARBOR  PTCLDY    19   9  63 NW18      30.38R WCI   4
TWO HARBORS    LGT SNOW  18  10  73 NW9       30.29R WCI   6
SILVER BAY     CLOUDY    18   7  62 NW8       30.27R WCI   7
GRAND MARAIS     N/A     17   5  59 MISG      30.29R
G MARAIS ARPRT CLOUDY     9   1  72 NW16G24   30.19R WCI  -9
$$
MNZ029>031-032-039>041-046>048-054>057-064-300000-
   West Central Minnesota

CITY           SKY/WX    TMP DP  RH WIND       PRES   REMARKS
FERGUS FALLS   CLOUDY    14   7  73 N15G24    30.53R WCI  -1
WHEATON        FLURRIES  18  10  73 NW12G21   30.53R WCI   5
MORRIS         PTCLDY    18  10  73 NW21      30.47R WCI   1
ALEXANDRIA     MOCLDY    15   7  70 NW14      30.44R WCI   0
ELBOW LAKE     FLURRIES  14   8  77 N20       30.48R WCI  -4
WADENA         PTCLDY    12   7  79 NW14      30.43R WCI  -3
GLENWOOD       CLEAR     16  10  79 NW17G24   30.44R WCI   0
APPLETON       MOCLDY    19  12  73 NW16G23   30.50R WCI   5
BENSON         PTCLDY    18   9  68 N20G25    30.48R WCI   1
ORTONVILLE     CLOUDY    19  12  73 NW16G23   30.49S WCI   5
MADISON        CLOUDY    25  18  74 N16       30.50R WCI  12
WILLMAR        FAIR      19  10  68 NW24      30.46R WCI   2
$$
MNZ033>034-036-042>043-049>051-058-059-300000-
   Central Minnesota

CITY           SKY/WX    TMP DP  RH WIND       PRES   REMARKS
ST CLOUD       CLEAR     22   9  57 N14G22    30.39R WCI   9
SAUK CENTRE    FAIR      17   8  67 NW15G22   30.43R WCI   3
PAYNESVILLE    CLEAR     17  10  74 W16G24    30.43R WCI   2
AITKIN         PTCLDY    18   7  62 NW10G17   30.38R WCI   6
PINE RIVER     CLEAR     16   7  67 NW9G16    30.43R WCI   4
BRAINERD       PTCLDY    16   6  65 N13       30.40R WCI   2
STAPLES        PTCLDY    16   7  67 NW14      30.42R WCI   1
LONG PRAIRIE   FAIR      18   9  68 NW18      30.42R WCI   2
LITTLE FALLS   CLEAR     21   9  58 NW9       30.41R WCI  11
LITCHFIELD     CLEAR     21  16  79 NW17      30.42R WCI   7
BUFFALO        CLEAR     24  13  62 NW14G22   30.40R WCI  12
MAPLE LAKE     CLEAR     24  15  68 NW16      30.40R WCI  11
$$
MNZ037-044-045-052-053-300000-
   East Central Minnesota

CITY           SKY/WX    TMP DP  RH WIND       PRES   REMARKS
PRINCETON      CLEAR     23  10  58 NW10G20   30.37R WCI  12
MORA           CLEAR     18   7  62 NW21      30.38R WCI   1
CAMBRIDGE      CLEAR     23  10  58 N9        30.36R WCI  13
RUSH CITY      CLOUDY    21  11  64 N13G20    30.36R WCI   8
MOOSE LAKE     PTCLDY    18   9  68 NW9       30.34R WCI   6
HINCKLEY       FLURRIES  21  12  68 NW12G17   30.36R WCI   9
CLOQUET        CLEAR     16   5  62 NW17G23   30.33R WCI   0
MCGREGOR       PTCLDY    18   9  68 NW12G18   30.38R WCI   5
$$
MNZ071>073-080-081-089-090-097-098-300000-
   Southwest Minnesota

CITY           SKY/WX    TMP DP  RH WIND       PRES   REMARKS
MONTEVIDEO     MOCLDY    19  12  73 N22G29    30.49R WCI   3
GRANITE FALLS  CLEAR     20  14  76 NW21      30.49R WCI   5
CANBY          CLOUDY    24  17  77 N12G22    30.49R WCI  12
MARSHALL       CLOUDY    23  12  63 N21G28    30.47R WCI   8
REDWOOD FALLS  CLEAR     22  13  68 NW18G26   30.45R WCI   7
OLIVIA         CLEAR     19  14  79 NW16G24   30.45R WCI   5
PIPESTONE      CLOUDY    25  19  80 N20G25    30.43R WCI  11
WINDOM         CLOUDY    23  18  80 NW22G29   30.42R WCI   8
WORTHINGTON    CLOUDY    25  18  74 NW21G28   30.43R WCI  10
JACKSON        CLOUDY    27  19  74 NW20G31   30.41R WCI  13
TRACY          CLOUDY    24  19  80 NW21G28   30.45R WCI   9
SLAYTON        CLOUDY    24  19  82 NW18G28   30.43R WCI  10
$$
MNZ065>067-074>077-082>085-091>093-300000-
   South Central Minnesota

CITY           SKY/WX    TMP DP  RH WIND       PRES   REMARKS
MANKATO        CLOUDY    27  16  63 NW17      30.38R WCI  14
NEW ULM        PTCLDY    21  14  73 NW22G28   30.42R WCI   5
ST JAMES       MOCLDY    25  18  74 NW23      30.43R WCI  10
FAIRMONT       CLOUDY    25  16  68 NW24G31   30.39R WCI   9
GLENCOE        CLEAR     25  18  72 NW20      30.39R WCI  11
FARIBAULT      PTCLDY    25  18  74 NW15G21   30.35R WCI  12
OWATONNA       MOCLDY    25  16  68 NW20      30.34R WCI  11
WASECA         MOCLDY    25  18  74 NW17G23   30.37R WCI  11
ALBERT LEA     CLOUDY    25  18  74 NW16G25   30.33R WCI  12
$$
MNZ078>079-086>088-094>096-300000-
   Southeast Minnesota

CITY           SKY/WX    TMP DP  RH WIND       PRES   REMARKS
ROCHESTER      CLOUDY    25  17  72 NW26      30.27R WCI   9
RED WING       CLOUDY    28  16  59 NW9G18    30.31R WCI  20
STANTON        PTCLDY    28  18  64 NW18G24   30.32R WCI  16
DODGE CENTER   CLOUDY    25  19  80 NW21G29   30.30R WCI  10
WINONA         CLOUDY    32  21  64 NW16G24   30.28R WCI  21
AUSTIN         CLOUDY    25  18  74 NW21G31   30.31R WCI  10
PRESTON        CLOUDY    26  19  72 N17G24    30.26R WCI  13
$$
ABBREVIATIONS USED IN REMARKS
   TC - TEMPERATURES IN CELSIUS
  WCI - WIND CHILL INDEX
   HX - HEAT INDEX
  VSB - VISIBILITY
$$


USA.gov is the U.S. government's official web portal to all federal, state and local government web resources and services.